EW7512 Weather Reports


Display with metric or nautical units.
time (UTC)temp
F
wind
direction
speed
MPH
gust
MPH
rain 1hr
in
rain 24hr
in
rain mn
in
humidity
%
barometer
mb
20260506051038 60 181 0.0 1.0 0.00 0.00 0.00 66 1017.3
20260506050537 60 182 0.0 1.0 0.00 0.00 0.00 68 1017.4
20260506045032 57 182 0.0 1.0 0.00 0.00 0.00 74 1017.2
20260506044604 56 181 0.0 1.0 0.00 0.00 0.00 74 1017.2
20260506044031 56 360 0.0 1.0 0.00 0.00 0.00 72 1017.3
20260506043529 56 182 0.0 1.0 0.00 0.00 0.00 72 1017.2
20260506043028 56 182 0.0 1.0 0.00 0.00 0.00 72 1017.2
20260506042527 55 181 0.0 1.0 0.00 0.00 0.00 73 1017.2
20260506042026 56 181 0.0 1.0 0.00 0.00 0.00 72 1017.1
20260506041526 56 182 0.0 2.0 0.00 0.00 0.00 70 1017.0
20260506041030 56 181 0.0 2.0 0.00 0.00 0.00 70 1017.0
20260506040528 56 181 0.0 0.0 0.00 0.00 0.00 71 1017.0
20260506040028 56 181 0.0 3.0 0.00 0.00 0.00 71 1016.9
20260506035528 55 181 0.0 3.0 0.00 0.00 0.00 72 1016.8
20260506035024 55 182 0.0 4.0 0.00 0.00 0.00 71 1016.7
20260506034544 55 192 1.0 4.0 0.00 0.00 0.00 70 1016.6
20260506034022 55 217 0.0 0.0 0.00 0.00 0.00 70 1016.5
20260506033522 55 217 0.0 0.0 0.00 0.00 0.00 69 1016.7
20260506033021 55 215 0.0 0.0 0.00 0.00 0.00 70 1016.6
20260506032520 55 216 0.0 0.0 0.00 0.00 0.00 71 1016.6
20260506032024 55 216 0.0 0.0 0.00 0.00 0.00 71 1016.5
20260506031521 55 216 0.0 0.0 0.00 0.00 0.00 71 1016.6
20260506031020 55 215 0.0 0.0 0.00 0.00 0.00 72 1016.6
20260506030522 55 216 0.0 1.0 0.00 0.00 0.00 72 1016.6
20260506030020 55 216 0.0 2.0 0.00 0.00 0.00 71 1016.5
20260506025521 55 216 0.0 2.0 0.00 0.00 0.00 71 1016.6
20260506025019 55 215 0.0 2.0 0.00 0.00 0.00 71 1016.5
20260506024519 55 215 0.0 2.0 0.00 0.00 0.00 71 1016.5
20260506024019 55 215 0.0 2.0 0.00 0.00 0.00 71 1016.5
20260506023519 56 215 0.0 2.0 0.00 0.00 0.00 70 1016.5
20260506023018 56 215 0.0 3.0 0.00 0.00 0.00 70 1016.5
20260506022518 56 215 0.0 3.0 0.00 0.00 0.00 70 1016.5
20260506022018 55 226 1.0 4.0 0.00 0.00 0.00 70 1016.5
20260506021518 56 248 0.0 4.0 0.00 0.00 0.00 70 1016.6
20260506021018 56 243 1.0 3.0 0.00 0.00 0.00 71 1016.6
20260506020518 55 216 0.0 3.0 0.00 0.00 0.00 72 1016.6
20260506020017 55 228 0.0 2.0 0.00 0.00 0.00 72 1016.6
20260506015519 55 223 1.0 2.0 0.00 0.00 0.00 72 1016.7
20260506015016 55 224 0.0 3.0 0.00 0.00 0.00 71 1016.7
20260506014517 55 223 1.0 3.0 0.00 0.00 0.00 71 1016.7
20260506014014 55 236 0.0 1.0 0.00 0.00 0.00 72 1016.7
20260506013515 55 236 0.0 1.0 0.00 0.00 0.00 71 1016.8
20260506013015 55 236 0.0 3.0 0.00 0.00 0.00 72 1016.8
20260506012515 55 236 0.0 3.0 0.00 0.00 0.00 72 1016.8
20260506012015 55 111 0.0 2.0 0.00 0.00 0.00 72 1016.7
20260506011517 55 105 0.0 1.0 0.00 0.00 0.00 73 1016.8
20260506011013 55 77 0.0 1.0 0.00 0.00 0.00 72 1016.8
20260506010513 55 76 0.0 1.0 0.00 0.00 0.00 73 1016.9
20260506010014 55 76 0.0 1.0 0.00 0.00 0.00 72 1016.9
20260506005513 55 78 0.0 1.0 0.00 0.00 0.00 72 1016.9
20260506005013 55 69 0.0 1.0 0.00 0.00 0.00 72 1016.9
20260506004528 55 67 0.0 0.0 0.00 0.00 0.00 72 1016.9
20260506004012 55 66 0.0 1.0 0.00 0.00 0.00 72 1016.9
20260506003512 54 69 0.0 1.0 0.00 0.00 0.00 72 1016.9
20260506003013 54 67 0.0 1.0 0.00 0.00 0.00 72 1016.9
20260506002511 54 360 0.0 0.0 0.00 0.00 0.00 71 1016.9
20260506002012 55 360 0.0 1.0 0.00 0.00 0.00 71 1016.8
20260506001510 55 360 0.0 1.0 0.00 0.00 0.00 70 1016.8
20260506001010 55 70 0.0 1.0 0.00 0.00 0.00 71 1016.8
20260506000510 55 360 0.0 1.0 0.00 0.00 0.00 70 1016.8
20260506000008 55 360 0.0 1.0 0.00 0.00 0.00 69 1016.9
20260505235507 55 360 0.0 2.0 0.00 0.00 0.00 69 1016.9
20260505235008 55 360 0.0 2.0 0.00 0.00 0.00 69 1016.9
20260505234509 55 360 0.0 0.0 0.00 0.00 0.00 69 1016.9
20260505234009 55 360 0.0 0.0 0.00 0.00 0.00 68 1016.9
20260505233510 55 360 0.0 0.0 0.00 0.00 0.00 69 1016.9
20260505233008 55 360 0.0 0.0 0.00 0.00 0.00 68 1017.0
20260505232505 55 55 0.0 0.0 0.00 0.00 0.00 68 1017.0
20260505232004 55 55 0.0 0.0 0.00 0.00 0.00 68 1017.0
20260505231509 55 36 0.0 0.0 0.00 0.00 0.00 68 1017.1
20260505231003 55 26 0.0 0.0 0.00 0.00 0.00 68 1017.2
20260505230503 56 360 0.0 0.0 0.00 0.00 0.00 67 1017.2
20260505230007 55 28 0.0 0.0 0.00 0.00 0.00 68 1017.2
20260505225503 55 32 0.0 0.0 0.00 0.00 0.00 68 1017.1
20260505225004 55 360 0.0 0.0 0.00 0.00 0.00 68 1017.2
20260505224502 55 360 0.0 0.0 0.00 0.00 0.00 68 1017.2
20260505224000 55 360 0.0 0.0 0.00 0.00 0.00 67 1017.2
20260505223600 56 360 0.0 0.0 0.00 0.00 0.00 67 1017.3
20260505223059 56 24 0.0 0.0 0.00 0.00 0.00 66 1017.2
20260505222600 56 24 0.0 0.0 0.00 0.00 0.00 66 1017.3
20260505222059 56 24 0.0 0.0 0.00 0.00 0.00 66 1017.3
20260505221603 56 24 0.0 0.0 0.00 0.00 0.00 66 1017.3
20260505221058 56 24 0.0 0.0 0.00 0.00 0.00 66 1017.3
20260505220558 56 24 0.0 0.0 0.00 0.00 0.00 66 1017.3
20260505220105 56 24 0.0 0.0 0.00 0.00 0.00 66 1017.4
20260505215557 56 24 0.0 0.0 0.00 0.00 0.00 65 1017.4
20260505215056 56 24 0.0 0.0 0.00 0.00 0.00 65 1017.4
20260505214604 56 24 0.0 0.0 0.00 0.00 0.00 65 1017.4
20260505214057 56 24 0.0 0.0 0.00 0.00 0.00 65 1017.4
20260505213555 57 23 0.0 0.0 0.00 0.00 0.00 65 1017.4
20260505213102 56 23 0.0 0.0 0.00 0.00 0.00 66 1017.4
20260505212554 56 22 0.0 0.0 0.00 0.00 0.00 66 1017.4
20260505212053 57 22 0.0 0.0 0.00 0.00 0.00 66 1017.4
20260505211601 57 22 0.0 0.0 0.00 0.00 0.00 66 1017.5
20260505211055 57 22 0.0 0.0 0.00 0.00 0.00 67 1017.5
20260505210552 57 22 0.0 0.0 0.00 0.00 0.00 67 1017.5
20260505210051 57 11 0.0 0.0 0.00 0.00 0.00 66 1017.6
20260505205553 57 11 0.0 0.0 0.00 0.00 0.00 67 1017.5
20260505205051 57 11 0.0 1.0 0.00 0.00 0.00 67 1017.5
20260505204550 57 11 0.0 1.0 0.00 0.00 0.00 68 1017.6
20260505204050 57 11 0.0 0.0 0.00 0.00 0.00 67 1017.6
20260505203549 57 11 0.0 1.0 0.00 0.00 0.00 68 1017.6
20260505203050 57 11 0.0 2.0 0.00 0.00 0.00 69 1017.6
20260505202550 57 11 0.0 2.0 0.00 0.00 0.00 69 1017.6
20260505202049 57 9 0.0 1.0 0.00 0.00 0.00 71 1017.6
20260505201549 57 9 0.0 1.0 0.00 0.00 0.00 73 1017.7
20260505201050 57 10 0.0 1.0 0.00 0.00 0.00 74 1017.7
20260505200549 57 5 0.0 0.0 0.00 0.00 0.00 74 1017.7
20260505200049 57 9 0.0 0.0 0.00 0.00 0.00 73 1017.7
20260505195549 57 9 0.0 0.0 0.00 0.00 0.00 72 1017.7
20260505195048 58 9 0.0 0.0 0.00 0.00 0.00 72 1017.7
20260505194549 58 5 0.0 1.0 0.00 0.00 0.00 71 1017.7
20260505194049 57 5 0.0 1.0 0.00 0.00 0.00 73 1017.6
20260505193548 57 9 0.0 0.0 0.00 0.00 0.00 73 1017.6
20260505193049 57 9 0.0 0.0 0.00 0.00 0.00 73 1017.7
20260505192547 57 9 0.0 0.0 0.00 0.00 0.00 72 1017.7
20260505192048 57 9 0.0 0.0 0.00 0.00 0.00 72 1017.7
20260505191555 57 9 0.0 0.0 0.00 0.00 0.00 71 1017.7
20260505191048 57 9 0.0 0.0 0.00 0.00 0.00 71 1017.7
20260505190550 57 9 0.0 0.0 0.00 0.00 0.00 71 1017.7
20260505190047 57 9 0.0 1.0 0.00 0.00 0.00 71 1017.7
20260505185547 57 9 0.0 0.0 0.00 0.00 0.00 71 1017.7
20260505185047 57 9 0.0 0.0 0.00 0.00 0.00 71 1017.6
20260505184546 57 9 0.0 1.0 0.00 0.00 0.00 71 1017.6
20260505184046 57 9 0.0 1.0 0.00 0.00 0.00 72 1017.6
20260505183545 58 9 0.0 1.0 0.00 0.00 0.00 74 1017.5
20260505183046 58 360 0.0 0.0 0.00 0.00 0.00 75 1017.5
20260505182545 58 360 0.0 0.0 0.00 0.00 0.00 75 1017.5
20260505182049 58 9 0.0 0.0 0.00 0.00 0.00 75 1017.4
20260505181546 58 9 0.0 0.0 0.00 0.00 0.00 75 1017.3
20260505181045 58 9 0.0 0.0 0.00 0.00 0.00 74 1017.2
20260505180545 59 9 0.0 1.0 0.00 0.00 0.00 73 1017.2
20260505180053 58 10 0.0 1.0 0.00 0.00 0.00 74 1017.2
20260505175545 59 11 0.0 2.0 0.00 0.00 0.00 74 1017.2
20260505175049 59 10 0.0 2.0 0.00 0.00 0.00 74 1017.3
20260505174605 59 9 0.0 1.0 0.00 0.00 0.00 73 1017.3
20260505174045 59 9 0.0 1.0 0.00 0.00 0.00 73 1017.2
20260505173544 59 9 0.0 1.0 0.00 0.00 0.00 72 1017.2
20260505173045 59 9 0.0 1.0 0.00 0.00 0.00 72 1017.2
20260505172544 59 360 0.0 1.0 0.00 0.00 0.00 72 1017.1
20260505172044 59 9 0.0 2.0 0.00 0.00 0.00 72 1017.0
20260505171544 59 10 0.0 3.0 0.00 0.00 0.00 72 1017.1
20260505171044 60 9 1.0 5.0 0.00 0.00 0.00 72 1017.1
20260505170543 60 360 3.0 5.0 0.00 0.00 0.00 72 1017.1
20260505170105 61 10 1.0 5.0 0.00 0.00 0.00 70 1017.1
20260505165543 62 9 1.0 4.0 0.00 0.00 0.00 69 1017.1
20260505165044 62 360 2.0 4.0 0.00 0.00 0.00 66 1017.1
20260505164543 63 360 0.0 1.0 0.00 0.00 0.00 63 1017.2
20260505164042 64 142 0.0 2.0 0.00 0.00 0.00 60 1017.2
20260505163542 64 142 0.0 2.0 0.00 0.00 0.00 59 1017.3
20260505163044 64 360 0.0 3.0 0.00 0.00 0.00 58 1017.3
20260505162542 64 141 1.0 3.0 0.00 0.00 0.00 58 1017.3
20260505162043 64 142 1.0 4.0 0.00 0.00 0.00 58 1017.3
20260505161553 65 145 2.0 5.0 0.00 0.00 0.00 59 1017.2
20260505161042 65 108 2.0 5.0 0.00 0.00 0.00 59 1017.3
20260505160545 65 96 1.0 6.0 0.00 0.00 0.00 58 1017.3
20260505153052 67 112 3.0 6.0 0.00 0.00 0.00 49 1017.1
20260505152540 67 84 2.0 10.0 0.00 0.00 0.00 49 1017.1
20260505152042 67 92 3.0 10.0 0.00 0.00 0.00 48 1017.2
20260505151545 68 148 3.0 9.0 0.00 0.00 0.00 49 1017.1
20260505151039 68 96 2.0 6.0 0.00 0.00 0.00 47 1017.2
20260505150539 69 74 3.0 7.0 0.00 0.00 0.00 46 1017.1
20260505140537 72 69 4.0 10.0 0.00 0.00 0.00 32 1017.2
20260505125029 73 327 8.0 16.0 0.00 0.00 0.00 30 1017.7
20260505124529 73 345 3.0 14.0 0.00 0.00 0.00 32 1017.8
20260505124028 73 360 4.0 15.0 0.00 0.00 0.00 31 1017.8
20260505123527 74 337 7.0 15.0 0.00 0.00 0.00 31 1017.8
20260505123049 74 330 2.0 9.0 0.00 0.00 0.00 31 1017.7
20260505122526 73 339 4.0 15.0 0.00 0.00 0.00 31 1017.8
20260505122026 73 20 7.0 15.0 0.00 0.00 0.00 31 1017.9
20260505121526 73 332 5.0 13.0 0.00 0.00 0.00 30 1018.0
20260505121025 73 5 3.0 13.0 0.00 0.00 0.00 32 1018.0
20260505120526 73 34 6.0 12.0 0.00 0.00 0.00 31 1018.1
20260505120028 73 18 6.0 14.0 0.00 0.00 0.00 33 1018.1
20260505115523 73 349 4.0 14.0 0.00 0.00 0.00 31 1018.2
20260505115023 73 355 4.0 14.0 0.00 0.00 0.00 31 1018.4
20260505114522 73 346 7.0 14.0 0.00 0.00 0.00 31 1018.3
20260505114022 73 9 4.0 11.0 0.00 0.00 0.00 31 1018.3
20260505113521 73 315 6.0 13.0 0.00 0.00 0.00 31 1018.3
20260505113032 73 360 3.0 13.0 0.00 0.00 0.00 32 1018.3
20260505112521 73 346 4.0 11.0 0.00 0.00 0.00 34 1018.4
20260505112021 73 22 5.0 12.0 0.00 0.00 0.00 32 1018.3
20260505111531 74 349 4.0 12.0 0.00 0.00 0.00 32 1018.4
20260505111020 73 325 5.0 17.0 0.00 0.00 0.00 32 1018.3
20260505110520 72 351 6.0 17.0 0.00 0.00 0.00 33 1018.4
20260505102018 72 360 2.0 13.0 0.00 0.00 0.00 33 1018.6
20260505101515 72 348 5.0 13.0 0.00 0.00 0.00 35 1018.5
20260505101012 71 337 2.0 11.0 0.00 0.00 0.00 38 1018.5
20260505100511 71 9 3.0 9.0 0.00 0.00 0.00 36 1018.5
20260505100013 70 315 3.0 9.0 0.00 0.00 0.00 38 1018.6
20260505095509 70 355 2.0 6.0 0.00 0.00 0.00 40 1018.7
20260505095010 70 9 2.0 6.0 0.00 0.00 0.00 41 1018.7
20260505094509 70 342 1.0 5.0 0.00 0.00 0.00 40 1018.8
20260505094009 70 246 1.0 8.0 0.00 0.00 0.00 41 1018.8
20260505093512 70 5 3.0 11.0 0.00 0.00 0.00 39 1018.9
20260505093010 70 340 5.0 11.0 0.00 0.00 0.00 36 1018.8
20260505092508 71 350 4.0 10.0 0.00 0.00 0.00 39 1018.8
20260505092007 70 31 1.0 10.0 0.00 0.00 0.00 40 1018.9
20260505091507 71 348 2.0 5.0 0.00 0.00 0.00 38 1018.9
20260505091006 71 57 1.0 5.0 0.00 0.00 0.00 38 1018.9
20260505090508 71 344 1.0 5.0 0.00 0.00 0.00 39 1018.9
20260505090006 71 84 1.0 5.0 0.00 0.00 0.00 38 1018.8
20260505085505 71 152 0.0 5.0 0.00 0.00 0.00 39 1018.9
20260505085007 71 196 1.0 5.0 0.00 0.00 0.00 42 1019.0
20260505084505 70 143 1.0 8.0 0.00 0.00 0.00 41 1018.9
20260505084003 70 173 1.0 8.0 0.00 0.00 0.00 42 1019.0
20260505083503 70 116 1.0 5.0 0.00 0.00 0.00 40 1019.0
20260505083005 70 232 1.0 7.0 0.00 0.00 0.00 41 1019.0
20260505082502 70 89 1.0 7.0 0.00 0.00 0.00 43 1019.0
20260505082001 70 333 0.0 6.0 0.00 0.00 0.00 42 1019.0
20260505081600 70 174 2.0 6.0 0.00 0.00 0.00 42 1019.0
20260505081057 69 171 1.0 8.0 0.00 0.00 0.00 45 1019.0
20260505080559 69 346 2.0 8.0 0.00 0.00 0.00 43 1018.9
20260505080057 69 28 2.0 8.0 0.00 0.00 0.00 44 1018.9
20260505075556 69 60 0.0 5.0 0.00 0.00 0.00 41 1018.9
20260505075054 69 57 2.0 5.0 0.00 0.00 0.00 42 1019.0
20260505074553 69 301 1.0 5.0 0.00 0.00 0.00 43 1019.1
20260505074051 69 330 2.0 6.0 0.00 0.00 0.00 45 1019.1
20260505073551 69 216 1.0 4.0 0.00 0.00 0.00 45 1019.1
20260505073050 68 240 1.0 4.0 0.00 0.00 0.00 45 1019.0
20260505072547 68 61 0.0 4.0 0.00 0.00 0.00 42 1019.0
20260505072047 67 61 2.0 4.0 0.00 0.00 0.00 45 1019.1
20260505071545 67 70 1.0 4.0 0.00 0.00 0.00 45 1019.0
20260505071045 67 332 1.0 4.0 0.00 0.00 0.00 48 1019.1
20260505070546 66 329 0.0 2.0 0.00 0.00 0.00 51 1019.1
20260505070048 65 303 0.0 4.0 0.00 0.00 0.00 54 1019.1
20260505065540 64 261 1.0 4.0 0.00 0.00 0.00 54 1019.1
20260505065038 64 234 1.0 4.0 0.00 0.00 0.00 55 1019.1
20260505064552 64 261 1.0 4.0 0.00 0.00 0.00 55 1019.0
20260505064035 63 194 0.0 7.0 0.00 0.00 0.00 57 1019.1
20260505063534 63 241 2.0 7.0 0.00 0.00 0.00 57 1019.0
20260505063033 63 230 2.0 4.0 0.00 0.00 0.00 57 1019.0
20260505062532 62 209 0.0 6.0 0.00 0.00 0.00 58 1019.0
20260505062030 62 262 2.0 6.0 0.00 0.00 0.00 57 1019.0
20260505061537 62 218 1.0 5.0 0.00 0.00 0.00 58 1019.0
20260505061026 61 259 0.0 3.0 0.00 0.00 0.00 57 1018.9
20260505060526 61 250 0.0 3.0 0.00 0.00 0.00 58 1018.9
20260505060030 61 242 0.0 4.0 0.00 0.00 0.00 59 1018.9
20260505055523 60 248 1.0 6.0 0.00 0.00 0.00 60 1018.8
20260505055022 59 255 2.0 6.0 0.00 0.00 0.00 61 1018.9
20260505054524 58 271 1.0 7.0 0.00 0.00 0.00 62 1018.9
20260505054022 58 234 3.0 7.0 0.00 0.00 0.00 62 1018.9
20260505053520 58 238 1.0 6.0 0.00 0.00 0.00 63 1018.8